TimePST,TemperatureF,Dew PointF,Humidity,Sea Level PressureIn,VisibilityMPH,Wind Direction,Wind SpeedMPH,Gust SpeedMPH,PrecipitationIn,Events,Conditions,WindDirDegrees,DateUTC
12:15 AM,44.6,28.4,53,29.91,10.0,SSE,21.9,31.1,N/A,,Overcast,150,2012-11-19 08:15:00
12:35 AM,44.6,28.4,53,29.93,10.0,SSE,18.4,29.9,N/A,,Overcast,160,2012-11-19 08:35:00
12:55 AM,44.6,28.4,53,29.92,10.0,South,17.3,23.0,N/A,,Overcast,170,2012-11-19 08:55:00
1:15 AM,44.6,28.4,53,29.91,10.0,SSE,19.6,32.2,N/A,,Overcast,150,2012-11-19 09:15:00
1:35 AM,44.6,28.4,53,29.92,10.0,SSE,21.9,27.6,N/A,,Overcast,160,2012-11-19 09:35:00
1:55 AM,44.6,28.4,53,29.92,10.0,SSE,23.0,31.1,N/A,,Overcast,150,2012-11-19 09:55:00
2:15 AM,44.6,28.4,53,29.93,10.0,SSE,18.4,34.5,N/A,,Overcast,150,2012-11-19 10:15:00
2:35 AM,44.6,28.4,53,29.93,10.0,SSE,16.1,20.7,N/A,,Overcast,160,2012-11-19 10:35:00
2:55 AM,44.6,28.4,53,29.93,10.0,South,15.0,-,N/A,,Overcast,180,2012-11-19 10:55:00
3:15 AM,44.6,28.4,53,29.92,10.0,South,13.8,19.6,N/A,,Overcast,170,2012-11-19 11:15:00
3:35 AM,44.6,28.4,53,29.92,10.0,South,17.3,23.0,N/A,,Overcast,180,2012-11-19 11:35:00
3:55 AM,44.6,28.4,53,29.93,10.0,South,12.7,-,N/A,,Overcast,190,2012-11-19 11:55:00
4:15 AM,44.6,28.4,53,29.92,10.0,South,21.9,27.6,N/A,,Overcast,190,2012-11-19 12:15:00
4:35 AM,46.4,28.4,50,29.92,10.0,South,16.1,24.2,N/A,,Overcast,170,2012-11-19 12:35:00
4:55 AM,46.4,28.4,50,29.93,10.0,South,13.8,24.2,N/A,,Overcast,170,2012-11-19 12:55:00
5:35 AM,46.4,26.6,46,29.93,10.0,SSE,13.8,21.9,N/A,,Overcast,160,2012-11-19 13:35:00
5:55 AM,46.4,26.6,46,29.94,10.0,South,13.8,24.2,N/A,,Overcast,170,2012-11-19 13:55:00
6:15 AM,46.4,26.6,46,29.93,10.0,South,15.0,-,N/A,,Overcast,170,2012-11-19 14:15:00
6:35 AM,46.4,26.6,46,29.93,10.0,South,16.1,25.3,N/A,,Overcast,170,2012-11-19 14:35:00
6:55 AM,46.4,26.6,46,29.92,10.0,South,19.6,27.6,N/A,,Overcast,180,2012-11-19 14:55:00
7:15 AM,46.4,26.6,46,29.93,10.0,South,16.1,25.3,N/A,,Mostly Cloudy,170,2012-11-19 15:15:00
7:35 AM,48.2,26.6,43,29.94,10.0,South,19.6,27.6,N/A,,Overcast,180,2012-11-19 15:35:00
7:55 AM,48.2,26.6,43,29.93,10.0,South,25.3,32.2,N/A,,Overcast,180,2012-11-19 15:55:00
8:15 AM,48.2,26.6,43,29.94,10.0,South,23.0,34.5,N/A,,Overcast,170,2012-11-19 16:15:00
8:35 AM,48.2,26.6,43,29.94,10.0,SSE,27.6,34.5,N/A,,Overcast,160,2012-11-19 16:35:00
8:55 AM,48.2,28.4,46,29.94,10.0,South,20.7,33.4,N/A,,Overcast,170,2012-11-19 16:55:00
9:15 AM,48.2,26.6,43,29.94,10.0,SSE,23.0,33.4,N/A,,Overcast,160,2012-11-19 17:15:00
9:35 AM,48.2,28.4,46,29.94,10.0,SSE,25.3,33.4,N/A,,Overcast,160,2012-11-19 17:35:00
9:55 AM,48.2,28.4,46,29.93,10.0,SSE,24.2,33.4,N/A,,Overcast,160,2012-11-19 17:55:00
10:15 AM,48.2,28.4,46,29.93,10.0,South,24.2,36.8,N/A,,Overcast,170,2012-11-19 18:15:00
10:35 AM,48.2,30.2,50,29.93,10.0,SSE,29.9,36.8,N/A,,Overcast,160,2012-11-19 18:35:00
10:55 AM,50.0,30.2,47,29.91,10.0,SSE,26.5,35.7,N/A,,Mostly Cloudy,160,2012-11-19 18:55:00
11:15 AM,50.0,30.2,47,29.90,10.0,South,23.0,31.1,N/A,,Mostly Cloudy,170,2012-11-19 19:15:00
11:35 AM,50.0,30.2,47,29.89,10.0,SSE,27.6,36.8,N/A,,Mostly Cloudy,160,2012-11-19 19:35:00
11:55 AM,51.8,28.4,41,29.86,10.0,South,29.9,41.4,N/A,,Scattered Clouds,170,2012-11-19 19:55:00
12:15 PM,51.8,28.4,41,29.87,10.0,South,34.5,46.0,N/A,,Mostly Cloudy,170,2012-11-19 20:15:00
12:35 PM,51.8,30.2,44,29.86,10.0,SSE,28.8,41.4,N/A,,Overcast,160,2012-11-19 20:35:00
12:55 PM,51.8,30.2,44,29.86,10.0,SSE,33.4,46.0,N/A,,Overcast,160,2012-11-19 20:55:00
1:15 PM,50.0,30.2,47,29.85,10.0,SSE,34.5,43.7,N/A,,Overcast,160,2012-11-19 21:15:00
1:35 PM,50.0,30.2,47,29.86,10.0,SSE,24.2,38.0,N/A,,Mostly Cloudy,160,2012-11-19 21:35:00
1:55 PM,50.0,32.0,50,29.84,10.0,SSE,26.5,39.1,N/A,,Overcast,150,2012-11-19 21:55:00
2:15 PM,48.2,33.8,58,29.83,10.0,SSE,26.5,42.6,N/A,,Overcast,160,2012-11-19 22:15:00
2:35 PM,46.4,35.6,66,29.83,10.0,SSE,26.5,38.0,N/A,,Overcast,160,2012-11-19 22:35:00
2:55 PM,46.4,35.6,66,29.83,10.0,SSE,31.1,46.0,N/A,,Mostly Cloudy,160,2012-11-19 22:55:00
3:15 PM,46.4,35.6,66,29.82,10.0,SSE,33.4,43.7,N/A,,Mostly Cloudy,150,2012-11-19 23:15:00
3:35 PM,48.2,33.8,58,29.83,10.0,SSE,29.9,40.3,N/A,,Mostly Cloudy,150,2012-11-19 23:35:00
3:55 PM,50.0,33.8,54,29.85,10.0,SSE,24.2,35.7,N/A,,Overcast,160,2012-11-19 23:55:00
4:15 PM,51.8,33.8,50,29.84,10.0,SSE,27.6,39.1,N/A,,Overcast,160,2012-11-20 00:15:00
4:35 PM,51.8,33.8,50,29.82,10.0,SSE,31.1,43.7,N/A,,Overcast,150,2012-11-20 00:35:00
4:55 PM,51.8,33.8,50,29.81,10.0,SSE,33.4,41.4,N/A,,Mostly Cloudy,150,2012-11-20 00:55:00
5:15 PM,51.8,33.8,50,29.81,10.0,SSE,28.8,36.8,N/A,,Mostly Cloudy,160,2012-11-20 01:15:00
5:35 PM,53.6,33.8,47,29.82,10.0,SSE,26.5,40.3,N/A,,Scattered Clouds,150,2012-11-20 01:35:00
5:55 PM,53.6,33.8,47,29.81,10.0,SE,29.9,38.0,N/A,,Mostly Cloudy,140,2012-11-20 01:55:00
6:15 PM,53.6,33.8,47,29.82,10.0,SSE,31.1,42.6,N/A,,Overcast,160,2012-11-20 02:15:00
6:35 PM,53.6,33.8,47,29.80,10.0,SSE,32.2,42.6,N/A,,Overcast,160,2012-11-20 02:35:00
6:55 PM,53.6,33.8,47,29.80,10.0,SSE,28.8,40.3,N/A,,Overcast,160,2012-11-20 02:55:00
7:15 PM,53.6,33.8,47,29.79,10.0,SSE,33.4,48.3,N/A,,Overcast,160,2012-11-20 03:15:00
7:35 PM,55.4,33.8,44,29.79,10.0,South,31.1,43.7,N/A,,Overcast,170,2012-11-20 03:35:00
7:55 PM,55.4,33.8,44,29.79,10.0,South,33.4,44.9,N/A,,Mostly Cloudy,170,2012-11-20 03:55:00
8:15 PM,55.4,33.8,44,29.79,10.0,SSE,34.5,47.2,N/A,,Mostly Cloudy,160,2012-11-20 04:15:00
8:35 PM,55.4,33.8,44,29.79,10.0,SSE,35.7,44.9,N/A,,Mostly Cloudy,160,2012-11-20 04:35:00
8:55 PM,55.4,33.8,44,29.79,10.0,SSE,27.6,42.6,N/A,,Mostly Cloudy,160,2012-11-20 04:55:00
9:15 PM,53.6,35.6,51,29.80,10.0,SSE,27.6,41.4,N/A,,Overcast,160,2012-11-20 05:15:00
9:35 PM,55.4,33.8,44,29.79,10.0,SSE,32.2,46.0,N/A,,Overcast,160,2012-11-20 05:35:00
9:55 PM,55.4,33.8,44,29.78,10.0,SSE,36.8,44.9,N/A,,Overcast,160,2012-11-20 05:55:00
10:15 PM,55.4,33.8,44,29.79,10.0,SSE,27.6,43.7,N/A,,Overcast,160,2012-11-20 06:15:00
10:35 PM,55.4,33.8,44,29.79,10.0,SSE,29.9,39.1,N/A,,Overcast,160,2012-11-20 06:35:00
10:55 PM,55.4,33.8,44,29.79,10.0,SSE,29.9,39.1,0.01,,Overcast,160,2012-11-20 06:55:00
11:15 PM,53.6,33.8,47,29.80,10.0,SSE,25.3,41.4,N/A,,Mostly Cloudy,160,2012-11-20 07:15:00
11:35 PM,55.4,33.8,44,29.81,10.0,South,20.7,40.3,N/A,,Overcast,170,2012-11-20 07:35:00
11:55 PM,53.6,33.8,47,29.80,10.0,South,20.7,34.5,N/A,,Overcast,170,2012-11-20 07:55:00